Volver al catálogo

ONEWEB-0253

ActivoComunicacionesPO
NORAD 48971·PAYLOAD·🇬🇧 United Kingdom

Lanzado Jul 1, 2021 desde Vostochny Cosmodrome

Loading…

Próximos Pases (próximas 24 horas)

TLE

ActualizadoSource: CelesTrak SupGP

Época: Sep 14, 2026, 14:29 UTC

1 48971C 21060E   26257.60400880 -.00001415  00000+0 -37066-2 0  2579
2 48971  87.9150 211.0211 0001954  78.5333 314.2969 13.16593504    19

Sigue ONEWEB-0253 en tiempo real con AllMySat

Download on the App Store